SCP
-0 -0 -0 -0 -0 -0 -0 -0 -0 -0 -0 -0 -0 -0 -0 -0 -0 -0 -0 -0 -0 -0 -0 -0 -0 -0 0 0 0 0 0 0 0 0 0 0 -0 -0 -0 -0 0 -0 0
-0 -0 -0 -0 -0 -0 -0 -0 -0 -0 -0 -0 -0 -0 -0 -0 -0 -0 -0 -0 -0 -0 -0 -0 -0 -0 -0 -0 0 0 0 0 0 0 0 0 -0 -0 -0 -0 0 0 0
-0 -0 -0 -0 -0 -0 -0 -0 -0 -0 -0 -0 -0 -0 -0 -0 -0 -0 -0 -0 -0 -0 -0 -0 -0 -0 -0 -0 -0 0 0 0 0 0 0 0 0 0 0 0 0 0 0
0 -0 -0 -0 -0 -0 -0 -0 -0 -0 -0 -0 -0 -0 -0 -0 -0 -0 -0 -0 -0 -0 -0 -0 0 -0 -0 -0 -0 0 0 0 0 0 0 0 0 0 0 0 0 0 0
0 0 0 0 -0 -0 -0 -0 -0 -0 -0 -0 -0 -0 -0 -0 -0 -0 -0 -0 -0 0 0 0 0 0 0 0 -0 0 0 0 0 0 0 0 0 0 0 0 0 0 0
0 0 0 0 0 -0 -0 -0 -0 -0 -0 -0 -0 -0 -0 -0 0 0 0 0 0 0 0 0 0 0 0 0 0 0 0 0 0 0 0 0 0 0 0 0 0 0 0
0 0 0 0 0 0 0 0 0 0 0 0 0 0 0 0 0 0 0 0 0 0 0 0 0 0 0 0 0 0 0 0 0 0 0 0 0 0 0 0 0 0 0
0 0 0 0 0 0 0 0 0 0 0 0 0 0 0 0 0 0 0 -0 -0 -0 -0 0 0 0 0 0 0 0 0 0 0 0 0 0 0 0 0 0 0 0 0
0 0 0 0 0 0 0 0 0 0 0 0 0 0 0 0 0 0 0 0 0 0 0 0 0 0 0 0 0 0 0 0 0 0 0 0 0 0 0 0 0 0 0
0 0 0 0 0 0 0 0 0 0 0 0 0 0 0 0 0 0 0 0 0 0 0 0 0 0 0 0 0 0 0 0 0 0 0 0 0 0 0 0 0 0 0
0 0 0 0 0 0 0 0 0 0 0 0 0 0 0 0 0 0 0 0 0 0 0 0 0 0 0 0 0 0 0 0 0 0 0 0 0 0 0 0 0 0 0
0 0 0 0 0 0 0 0 0 0 0 0 0 0 0 0 0 0 0 0 0 0 0 0 0 0 0 0 0 0 0 0 0 0 0 0 0 0 0 0 0 0 0
0 0 0 0 0 0 0 0 0 0 0 0 0 0 0 0 0 0 0 0 0 0 0 0 0 0 0 0 0 0 0 0 0 0 0 0 0 0 0 0 0 0 0
0 0 0 0 0 0 0 0 0 0 0 0 0 0 0 0 0 0 0 0 0 0 0 0 0 0 0 0 0 0 0 0 0 0 0 0 0 0 0 0 0 0 0
0 0 0 0 0 0 0 0 0 0 0 0 0 0 0 0 0 0 0 0 0 0 0 0 0 0 0 0 0 0 0 0 0 0 0 0 0 0 0 0 0 0 0
0 0 0 0 0 0 0 0 0 0 0 0 0 0 0 0 0 0 0 0 0 0 0 -0 -0 -0 0 0 0 0 0 0 0 0 0 0 0 0 0 0 0 0 0
0 0 0 0 0 0 0 0 0 0 0 0 0 0 0 0 0 0 0 0 0 0 0 -0 -0 -0 0 0 0 0 0 0 0 0 0 0 0 0 0 0 0 0 0
0 0 0 0 0 0 0 0 0 0 0 0 0 0 0 0 0 0 0 0 0 0 0 0 0 0 0 0 0 0 0 0 0 0 0 0 0 0 0 0 0 0 0
0 0 0 0 0 0 0 0 0 0 0 0 0 0 0 0 0 0 0 0 0 0 0 0 0 0 0 0 -0 0 0 0 0 0 0 0 0 0 0 0 0 0 0
0 0 0 0 0 0 0 0 0 0 0 0 0 0 0 0 0 0 0 0 0 0 0 0 0 0 0 -0 0 0 0 0 0 0 0 0 0 0 0 0 0 0 0
0 0 0 0 0 0 0 0 0 0 0 0 0 0 0 0 0 0 0 0 0 0 0 0 0 0 0 -0 -0 -0 0 0 0 0 -0 0 0 0 0 0 0 0 0
0 0 0 0 0 0 0 0 0 0 0 0 0 0 0 0 0 0 0 0 0 0 0 0 0 0 0 0 0 -0 -0 -0 0 0 0 0 0 0 0 0 0 0 -0
0 0 0 0 0 0 0 0 0 0 0 0 0 0 0 0 0 0 0 0 0 0 0 0 0 0 0 0 -0 0 0 0 0 0 0 0 0 0 0 0 0 0 -0
0 0 0 0 0 0 0 0 0 0 0 0 0 0 0 0 0 0 0 0 0 0 0 0 0 0 0 0 0 0 0 0 0 0 -0 0 0 0 0 0 0 -0 0
0 0 0 0 0 0 0 0 0 0 0 0 0 0 0 0 0 0 0 0 0 0 0 0 0 0 0 0 0 0 0 0 0 0 0 0 0 0 0 0 0 0 -0
0 0 0 0 0 0 0 0 0 0 0 0 0 0 0 0 0 0 0 0 0 0 0 0 0 0 0 0 0 0 0 0 0 0 0 0 0 0 0 0 0 0 0
Wind_Speed_500mb
15 12 11 12 16 14 11 7 4 4 6 7 5 4 3 6 8 9 10 12 12 13 14 13 15 17 20 19 18 18 19 20 20 19 18 18 16 15 17 18 17 16 15
19 15 14 14 13 14 10 9 11 9 6 4 5 6 7 9 12 13 14 14 13 12 14 15 15 18 21 21 22 21 22 23 23 24 23 19 17 17 21 19 20 18 15
19 16 16 13 11 11 7 10 10 7 6 8 9 10 11 13 15 17 17 19 18 18 17 17 18 21 24 26 28 27 26 25 25 22 21 18 12 17 20 23 21 19 20
25 17 13 10 7 6 3 5 6 10 12 14 18 18 18 18 19 20 21 20 21 22 23 25 27 28 27 26 26 27 28 29 29 26 21 17 19 10 19 23 20 20 19
25 19 11 8 7 5 5 7 8 10 12 17 17 17 18 19 20 22 22 23 25 26 29 30 31 32 32 31 31 31 30 28 26 26 24 15 23 22 24 23 19 20 21
27 19 14 9 5 3 2 1 2 2 5 7 7 8 10 12 15 17 19 20 22 23 24 28 30 32 33 34 36 36 33 32 30 25 23 22 21 24 29 26 27 25 22
26 18 12 10 10 8 6 5 4 4 5 7 7 9 11 13 15 16 17 19 20 22 25 27 28 27 28 30 32 34 36 37 35 31 28 22 22 26 32 27 26 29 29
29 22 21 20 18 13 11 9 8 7 6 9 10 10 10 10 9 9 10 11 12 14 17 20 22 23 25 26 29 31 32 34 35 35 29 25 28 29 35 33 28 29 31
32 30 27 24 19 16 13 11 9 8 7 7 5 5 6 7 9 10 13 17 19 20 21 23 24 26 27 27 27 25 26 27 31 34 33 25 26 27 32 37 33 32 33
38 38 35 29 26 21 17 14 12 9 8 7 5 5 6 6 7 12 16 18 21 25 27 27 28 29 29 28 29 27 26 24 26 26 28 31 40 41 43 45 40 39 40
46 45 42 37 32 27 22 18 15 14 12 10 8 7 7 6 9 11 15 19 24 27 28 29 30 30 29 29 27 28 28 27 26 26 25 27 38 45 48 49 52 47 42
52 52 49 44 39 33 29 25 21 19 18 17 15 12 9 6 7 10 13 17 20 23 27 29 29 28 29 29 29 28 29 29 30 31 29 31 34 37 43 45 49 51 52
52 52 53 48 44 38 35 30 28 26 24 22 18 16 14 11 11 13 16 19 22 24 28 30 31 31 32 34 35 35 36 36 36 34 33 35 38 40 42 46 44 47 53
57 55 55 54 50 44 41 37 36 33 30 27 24 22 19 17 17 18 20 21 24 28 32 34 34 33 32 32 35 35 37 40 42 43 42 41 41 43 44 44 46 45 47
61 61 60 59 55 51 47 45 42 39 35 31 30 27 24 22 21 21 22 23 25 30 34 39 40 39 37 37 37 38 38 38 39 42 44 43 42 45 46 46 48 48 46
66 68 66 62 60 56 52 50 46 42 40 37 34 28 26 25 23 23 22 24 27 32 38 44 46 46 45 44 41 39 39 39 40 42 43 42 43 45 46 45 48 48 49
71 72 73 67 64 62 58 56 53 50 46 44 40 35 33 30 28 26 26 27 29 34 39 44 45 44 45 46 48 48 48 48 47 46 45 46 43 42 41 39 40 45 50
70 78 76 71 66 65 63 61 57 54 49 47 43 39 37 33 28 27 28 28 28 32 37 43 46 47 48 51 55 57 58 58 56 56 49 39 32 38 37 30 27 41 45
72 79 79 74 69 68 66 63 60 55 52 49 45 42 40 35 33 31 28 28 29 32 36 42 45 47 50 53 57 59 61 62 58 48 41 44 38 28 25 42 59 42 45
75 81 78 74 70 67 66 64 63 60 57 56 51 50 46 43 38 32 30 29 30 33 38 43 44 44 48 56 62 64 62 57 60 47 38 35 39 54 63 58 54 62 54
78 81 80 77 75 72 76 76 73 70 64 62 57 56 51 47 40 35 35 34 34 35 40 43 45 47 48 54 63 70 63 59 32 30 45 52 54 56 50 69 41 73 75
81 83 81 80 77 77 79 77 73 68 67 62 60 60 56 51 45 42 39 36 36 37 41 43 47 47 45 46 53 54 38 55 20 45 55 55 59 51 57 59 83 77 82
83 88 85 82 78 77 80 77 76 72 70 71 73 70 64 57 51 46 41 40 39 40 42 45 45 43 42 44 40 38 22 17 74 34 78 39 40 54 73 82 94 94 94
79 82 81 79 78 77 80 83 87 89 86 83 75 68 65 59 54 50 46 44 43 42 43 45 43 41 41 43 45 45 46 49 33 57 54 49 84 83 91 100 104 108 107
69 78 79 81 79 78 82 82 86 88 84 76 72 70 68 60 56 53 50 46 44 43 45 45 41 40 41 45 47 49 55 55 52 55 100 93 99 106 107 110 113 120 119
68 74 78 80 80 81 82 84 87 85 85 84 82 78 69 63 60 56 51 48 45 46 45 44 43 43 43 47 51 54 57 58 60 57 78 112 117 121 116 119 119 120 114
Wind_Direction_500mb
191 166 169 168 143 124 134 132 143 182 189 210 217 237 284 286 286 299 310 322 327 331 330 329 324 324 324 330 335 335 330 319 312 314 320 323 325 321 316 322 330 338 333
196 166 174 178 179 180 134 147 158 151 159 165 234 244 264 290 299 300 302 308 308 317 330 329 323 322 318 316 318 322 323 323 322 320 319 321 327 332 325 318 320 323 322
179 185 182 178 174 188 192 183 192 204 221 259 286 284 287 289 296 301 305 304 306 301 304 311 314 310 313 316 314 314 313 315 320 323 320 314 329 345 310 310 307 309 314
189 194 176 176 183 202 204 251 260 258 268 275 277 290 296 296 294 295 296 298 299 300 300 300 300 303 306 306 307 308 310 313 316 319 321 322 313 270 290 297 299 294 300
197 194 191 197 205 207 196 207 220 240 253 263 282 285 286 287 288 291 294 294 293 292 292 293 293 294 299 300 297 297 302 313 311 311 309 305 297 303 267 283 290 286 289
202 197 199 191 187 190 165 196 224 219 255 272 274 277 288 291 293 297 300 303 301 301 300 301 303 305 303 299 297 298 300 300 301 304 304 301 295 290 292 284 282 282 277
211 204 199 204 210 202 199 203 218 247 259 278 287 298 294 297 301 303 303 305 312 314 311 309 308 308 305 303 300 299 298 297 297 300 301 298 287 289 287 293 279 277 281
212 206 206 210 208 208 213 215 225 239 261 282 294 300 307 311 317 332 342 346 348 344 340 337 335 330 326 319 311 308 303 298 294 292 295 304 298 286 282 284 281 275 273
216 220 218 223 221 218 227 241 249 264 272 283 300 325 335 354 10 13 12 9 6 1 358 354 349 344 338 335 332 328 318 306 295 291 290 280 280 281 283 285 281 279 275
217 222 225 224 227 228 233 235 246 254 274 293 310 318 327 332 354 4 7 0 355 351 348 343 339 337 336 335 332 330 325 315 311 297 287 280 272 273 279 284 286 280 276
221 224 227 228 229 230 233 241 243 250 258 262 263 274 288 329 349 359 355 353 351 348 343 338 333 328 325 323 322 321 320 318 313 306 298 279 277 279 276 277 281 279 277
224 223 226 227 227 228 227 230 234 241 248 253 259 264 269 287 320 331 340 342 338 333 328 324 321 317 313 312 312 314 313 314 313 311 307 300 295 290 287 280 276 273 271
232 228 228 227 227 226 230 230 233 234 237 243 246 248 254 265 286 298 305 311 319 323 324 323 320 318 316 315 316 318 317 317 316 314 311 310 308 303 299 296 289 280 272
231 234 229 226 227 224 227 227 229 231 233 235 237 239 242 253 266 279 290 304 311 317 324 327 328 326 324 323 322 322 322 322 319 317 316 314 310 306 303 299 296 291 284
230 233 231 228 225 224 225 226 228 229 231 233 232 233 241 253 265 274 286 296 307 319 328 333 335 333 329 329 329 325 322 318 316 314 312 308 305 301 299 296 295 292 288
229 231 233 229 225 224 224 227 229 229 232 233 235 235 241 249 257 267 280 290 306 321 332 337 337 336 334 331 329 326 322 319 318 315 311 307 303 299 294 293 291 289 286
227 229 232 230 224 223 222 227 227 227 228 230 231 233 239 245 252 264 277 291 308 322 334 337 334 330 327 327 327 326 324 323 322 319 314 308 302 294 292 292 293 293 289
226 228 231 230 224 222 222 225 226 227 227 229 231 234 240 247 256 265 274 289 310 326 329 329 328 326 327 326 326 327 326 327 324 320 313 307 301 294 289 294 306 304 298
228 229 229 230 225 222 221 224 227 228 230 232 236 240 244 249 253 261 275 291 306 314 318 319 323 324 325 324 323 324 326 328 327 327 323 315 306 309 310 304 313 315 310
230 229 230 229 226 222 222 223 226 227 229 232 234 238 241 244 250 260 274 285 295 304 309 313 319 320 322 325 325 325 326 330 328 319 321 327 331 317 313 315 319 312 319
224 222 226 226 226 222 220 222 225 228 229 232 234 238 241 244 249 259 267 275 284 293 301 308 313 317 324 325 325 324 326 334 330 332 333 315 308 302 299 303 302 311 308
221 220 224 229 229 227 226 227 229 232 232 235 236 240 242 244 247 253 262 271 280 289 295 305 309 315 320 324 323 327 326 335 315 312 298 303 290 290 299 300 306 307 308
218 220 225 230 230 228 229 227 228 229 231 231 233 236 238 240 243 249 257 267 275 283 294 300 302 307 311 319 319 317 324 304 311 316 311 309 297 298 299 301 305 309 309
224 226 227 228 230 228 229 229 230 234 233 236 240 240 238 239 242 245 252 263 274 284 290 292 298 304 303 309 313 310 303 303 314 314 326 299 306 307 307 306 306 306 306
225 222 223 224 228 228 228 231 233 235 238 239 239 236 238 239 240 243 252 262 271 278 283 290 295 297 298 303 304 304 299 297 292 288 300 303 304 305 304 304 303 304 305
221 220 220 221 225 227 229 231 236 237 235 233 233 235 237 240 241 245 251 257 267 276 281 286 290 292 295 299 300 299 294 291 292 287 288 299 303 305 302 301 301 303 304
Wind_Speed_850mb
15 12 11 12 16 14 11 7 4 4 6 7 5 4 3 6 8 9 10 12 12 13 14 13 15 17 20 19 18 18 19 20 20 19 18 18 16 15 17 18 17 16 15
19 15 14 14 13 14 10 9 11 9 6 4 5 6 7 9 12 13 14 14 13 12 14 15 15 18 21 21 22 21 22 23 23 24 23 19 17 17 21 19 20 18 15
19 16 16 13 11 11 7 10 10 7 6 8 9 10 11 13 15 17 17 19 18 18 17 17 18 21 24 26 28 27 26 25 25 22 21 18 12 17 20 23 21 19 20
25 17 13 10 7 6 3 5 6 10 12 14 18 18 18 18 19 20 21 20 21 22 23 25 27 28 27 26 26 27 28 29 29 26 21 17 19 10 19 23 20 20 19
25 19 11 8 7 5 5 7 8 10 12 17 17 17 18 19 20 22 22 23 25 26 29 30 31 32 32 31 31 31 30 28 26 26 24 15 23 22 24 23 19 20 21
27 19 14 9 5 3 2 1 2 2 5 7 7 8 10 12 15 17 19 20 22 23 24 28 30 32 33 34 36 36 33 32 30 25 23 22 21 24 29 26 27 25 22
26 18 12 10 10 8 6 5 4 4 5 7 7 9 11 13 15 16 17 19 20 22 25 27 28 27 28 30 32 34 36 37 35 31 28 22 22 26 32 27 26 29 29
29 22 21 20 18 13 11 9 8 7 6 9 10 10 10 10 9 9 10 11 12 14 17 20 22 23 25 26 29 31 32 34 35 35 29 25 28 29 35 33 28 29 31
32 30 27 24 19 16 13 11 9 8 7 7 5 5 6 7 9 10 13 17 19 20 21 23 24 26 27 27 27 25 26 27 31 34 33 25 26 27 32 37 33 32 33
38 38 35 29 26 21 17 14 12 9 8 7 5 5 6 6 7 12 16 18 21 25 27 27 28 29 29 28 29 27 26 24 26 26 28 31 40 41 43 45 40 39 40
46 45 42 37 32 27 22 18 15 14 12 10 8 7 7 6 9 11 15 19 24 27 28 29 30 30 29 29 27 28 28 27 26 26 25 27 38 45 48 49 52 47 42
52 52 49 44 39 33 29 25 21 19 18 17 15 12 9 6 7 10 13 17 20 23 27 29 29 28 29 29 29 28 29 29 30 31 29 31 34 37 43 45 49 51 52
52 52 53 48 44 38 35 30 28 26 24 22 18 16 14 11 11 13 16 19 22 24 28 30 31 31 32 34 35 35 36 36 36 34 33 35 38 40 42 46 44 47 53
57 55 55 54 50 44 41 37 36 33 30 27 24 22 19 17 17 18 20 21 24 28 32 34 34 33 32 32 35 35 37 40 42 43 42 41 41 43 44 44 46 45 47
61 61 60 59 55 51 47 45 42 39 35 31 30 27 24 22 21 21 22 23 25 30 34 39 40 39 37 37 37 38 38 38 39 42 44 43 42 45 46 46 48 48 46
66 68 66 62 60 56 52 50 46 42 40 37 34 28 26 25 23 23 22 24 27 32 38 44 46 46 45 44 41 39 39 39 40 42 43 42 43 45 46 45 48 48 49
71 72 73 67 64 62 58 56 53 50 46 44 40 35 33 30 28 26 26 27 29 34 39 44 45 44 45 46 48 48 48 48 47 46 45 46 43 42 41 39 40 45 50
70 78 76 71 66 65 63 61 57 54 49 47 43 39 37 33 28 27 28 28 28 32 37 43 46 47 48 51 55 57 58 58 56 56 49 39 32 38 37 30 27 41 45
72 79 79 74 69 68 66 63 60 55 52 49 45 42 40 35 33 31 28 28 29 32 36 42 45 47 50 53 57 59 61 62 58 48 41 44 38 28 25 42 59 42 45
75 81 78 74 70 67 66 64 63 60 57 56 51 50 46 43 38 32 30 29 30 33 38 43 44 44 48 56 62 64 62 57 60 47 38 35 39 54 63 58 54 62 54
78 81 80 77 75 72 76 76 73 70 64 62 57 56 51 47 40 35 35 34 34 35 40 43 45 47 48 54 63 70 63 59 32 30 45 52 54 56 50 69 41 73 75
81 83 81 80 77 77 79 77 73 68 67 62 60 60 56 51 45 42 39 36 36 37 41 43 47 47 45 46 53 54 38 55 20 45 55 55 59 51 57 59 83 77 82
83 88 85 82 78 77 80 77 76 72 70 71 73 70 64 57 51 46 41 40 39 40 42 45 45 43 42 44 40 38 22 17 74 34 78 39 40 54 73 82 94 94 94
79 82 81 79 78 77 80 83 87 89 86 83 75 68 65 59 54 50 46 44 43 42 43 45 43 41 41 43 45 45 46 49 33 57 54 49 84 83 91 100 104 108 107
69 78 79 81 79 78 82 82 86 88 84 76 72 70 68 60 56 53 50 46 44 43 45 45 41 40 41 45 47 49 55 55 52 55 100 93 99 106 107 110 113 120 119
68 74 78 80 80 81 82 84 87 85 85 84 82 78 69 63 60 56 51 48 45 46 45 44 43 43 43 47 51 54 57 58 60 57 78 112 117 121 116 119 119 120 114
Wind_Direction_850mb
191 166 169 168 143 124 134 132 143 182 189 210 217 237 284 286 286 299 310 322 327 331 330 329 324 324 324 330 335 335 330 319 312 314 320 323 325 321 316 322 330 338 333
196 166 174 178 179 180 134 147 158 151 159 165 234 244 264 290 299 300 302 308 308 317 330 329 323 322 318 316 318 322 323 323 322 320 319 321 327 332 325 318 320 323 322
179 185 182 178 174 188 192 183 192 204 221 259 286 284 287 289 296 301 305 304 306 301 304 311 314 310 313 316 314 314 313 315 320 323 320 314 329 345 310 310 307 309 314
189 194 176 176 183 202 204 251 260 258 268 275 277 290 296 296 294 295 296 298 299 300 300 300 300 303 306 306 307 308 310 313 316 319 321 322 313 270 290 297 299 294 300
197 194 191 197 205 207 196 207 220 240 253 263 282 285 286 287 288 291 294 294 293 292 292 293 293 294 299 300 297 297 302 313 311 311 309 305 297 303 267 283 290 286 289
202 197 199 191 187 190 165 196 224 219 255 272 274 277 288 291 293 297 300 303 301 301 300 301 303 305 303 299 297 298 300 300 301 304 304 301 295 290 292 284 282 282 277
211 204 199 204 210 202 199 203 218 247 259 278 287 298 294 297 301 303 303 305 312 314 311 309 308 308 305 303 300 299 298 297 297 300 301 298 287 289 287 293 279 277 281
212 206 206 210 208 208 213 215 225 239 261 282 294 300 307 311 317 332 342 346 348 344 340 337 335 330 326 319 311 308 303 298 294 292 295 304 298 286 282 284 281 275 273
216 220 218 223 221 218 227 241 249 264 272 283 300 325 335 354 10 13 12 9 6 1 358 354 349 344 338 335 332 328 318 306 295 291 290 280 280 281 283 285 281 279 275
217 222 225 224 227 228 233 235 246 254 274 293 310 318 327 332 354 4 7 0 355 351 348 343 339 337 336 335 332 330 325 315 311 297 287 280 272 273 279 284 286 280 276
221 224 227 228 229 230 233 241 243 250 258 262 263 274 288 329 349 359 355 353 351 348 343 338 333 328 325 323 322 321 320 318 313 306 298 279 277 279 276 277 281 279 277
224 223 226 227 227 228 227 230 234 241 248 253 259 264 269 287 320 331 340 342 338 333 328 324 321 317 313 312 312 314 313 314 313 311 307 300 295 290 287 280 276 273 271
232 228 228 227 227 226 230 230 233 234 237 243 246 248 254 265 286 298 305 311 319 323 324 323 320 318 316 315 316 318 317 317 316 314 311 310 308 303 299 296 289 280 272
231 234 229 226 227 224 227 227 229 231 233 235 237 239 242 253 266 279 290 304 311 317 324 327 328 326 324 323 322 322 322 322 319 317 316 314 310 306 303 299 296 291 284
230 233 231 228 225 224 225 226 228 229 231 233 232 233 241 253 265 274 286 296 307 319 328 333 335 333 329 329 329 325 322 318 316 314 312 308 305 301 299 296 295 292 288
229 231 233 229 225 224 224 227 229 229 232 233 235 235 241 249 257 267 280 290 306 321 332 337 337 336 334 331 329 326 322 319 318 315 311 307 303 299 294 293 291 289 286
227 229 232 230 224 223 222 227 227 227 228 230 231 233 239 245 252 264 277 291 308 322 334 337 334 330 327 327 327 326 324 323 322 319 314 308 302 294 292 292 293 293 289
226 228 231 230 224 222 222 225 226 227 227 229 231 234 240 247 256 265 274 289 310 326 329 329 328 326 327 326 326 327 326 327 324 320 313 307 301 294 289 294 306 304 298
228 229 229 230 225 222 221 224 227 228 230 232 236 240 244 249 253 261 275 291 306 314 318 319 323 324 325 324 323 324 326 328 327 327 323 315 306 309 310 304 313 315 310
230 229 230 229 226 222 222 223 226 227 229 232 234 238 241 244 250 260 274 285 295 304 309 313 319 320 322 325 325 325 326 330 328 319 321 327 331 317 313 315 319 312 319
224 222 226 226 226 222 220 222 225 228 229 232 234 238 241 244 249 259 267 275 284 293 301 308 313 317 324 325 325 324 326 334 330 332 333 315 308 302 299 303 302 311 308
221 220 224 229 229 227 226 227 229 232 232 235 236 240 242 244 247 253 262 271 280 289 295 305 309 315 320 324 323 327 326 335 315 312 298 303 290 290 299 300 306 307 308
218 220 225 230 230 228 229 227 228 229 231 231 233 236 238 240 243 249 257 267 275 283 294 300 302 307 311 319 319 317 324 304 311 316 311 309 297 298 299 301 305 309 309
224 226 227 228 230 228 229 229 230 234 233 236 240 240 238 239 242 245 252 263 274 284 290 292 298 304 303 309 313 310 303 303 314 314 326 299 306 307 307 306 306 306 306
225 222 223 224 228 228 228 231 233 235 238 239 239 236 238 239 240 243 252 262 271 278 283 290 295 297 298 303 304 304 299 297 292 288 300 303 304 305 304 304 303 304 305
221 220 220 221 225 227 229 231 236 237 235 233 233 235 237 240 241 245 251 257 267 276 281 286 290 292 295 299 300 299 294 291 292 287 288 299 303 305 302 301 301 303 304